TimeEDT,TemperatureF,Dew PointF,Humidity,Sea Level PressureIn,VisibilityMPH,Wind Direction,Wind SpeedMPH,Gust SpeedMPH,PrecipitationIn,Events,Conditions,WindDirDegrees,DateUTC
12:15 AM,57.2,57.2,100,29.68,4.0,South,3.5,-,N/A,,Mostly Cloudy,170,2012-10-20 04:15:00
12:35 AM,57.2,57.2,100,29.67,10.0,South,6.9,-,N/A,,Scattered Clouds,180,2012-10-20 04:35:00
12:55 AM,59.0,57.2,94,29.67,10.0,South,6.9,-,N/A,,Mostly Cloudy,170,2012-10-20 04:55:00
1:15 AM,60.8,59.0,94,29.66,10.0,SSE,10.4,-,N/A,,Mostly Cloudy,150,2012-10-20 05:15:00
1:35 AM,60.8,59.0,94,29.65,10.0,SE,12.7,-,N/A,,Mostly Cloudy,140,2012-10-20 05:35:00
1:55 AM,62.6,59.0,88,29.65,10.0,SE,12.7,-,N/A,,Partly Cloudy,140,2012-10-20 05:55:00
2:15 AM,62.6,59.0,88,29.65,10.0,SE,12.7,-,N/A,,Clear,140,2012-10-20 06:15:00
2:35 AM,60.8,57.2,88,29.65,10.0,South,4.6,-,N/A,,Scattered Clouds,170,2012-10-20 06:35:00
2:55 AM,60.8,59.0,94,29.65,10.0,South,3.5,-,N/A,,Mostly Cloudy,190,2012-10-20 06:55:00
3:15 AM,62.6,59.0,88,29.64,10.0,SSE,3.5,-,N/A,,Mostly Cloudy,150,2012-10-20 07:15:00
3:35 AM,62.6,57.2,82,29.65,10.0,SE,6.9,-,N/A,,Clear,140,2012-10-20 07:35:00
3:55 AM,60.8,57.2,88,29.64,10.0,SE,9.2,-,N/A,,Clear,130,2012-10-20 07:55:00
4:15 AM,62.6,57.2,82,29.65,10.0,South,5.8,-,N/A,,Clear,170,2012-10-20 08:15:00
4:35 AM,60.8,57.2,88,29.65,10.0,SE,10.4,-,N/A,,Clear,140,2012-10-20 08:35:00
4:55 AM,60.8,57.2,88,29.65,10.0,SE,12.7,-,N/A,,Clear,130,2012-10-20 08:55:00
5:15 AM,60.8,57.2,88,29.66,10.0,SSW,3.5,-,N/A,,Clear,200,2012-10-20 09:15:00
5:35 AM,59.0,55.4,88,29.66,10.0,SSW,5.8,-,N/A,,Clear,210,2012-10-20 09:35:00
5:55 AM,59.0,55.4,88,29.66,10.0,ESE,5.8,-,N/A,,Clear,120,2012-10-20 09:55:00
6:15 AM,60.8,55.4,82,29.66,10.0,ESE,5.8,-,N/A,,Clear,110,2012-10-20 10:15:00
6:35 AM,59.0,55.4,88,29.66,10.0,SE,3.5,-,N/A,,Clear,140,2012-10-20 10:35:00
6:55 AM,57.2,55.4,94,29.66,10.0,ESE,5.8,-,N/A,,Partly Cloudy,110,2012-10-20 10:55:00
7:15 AM,55.4,53.6,94,29.66,10.0,SE,6.9,-,N/A,,Partly Cloudy,130,2012-10-20 11:15:00
7:35 AM,55.4,53.6,94,29.66,10.0,SSE,3.5,-,N/A,,Clear,160,2012-10-20 11:35:00
7:55 AM,55.4,53.6,94,29.67,10.0,SE,6.9,-,N/A,,Clear,130,2012-10-20 11:55:00
8:15 AM,55.4,55.4,100,29.66,10.0,SE,4.6,-,N/A,,Clear,130,2012-10-20 12:15:00
8:35 AM,55.4,53.6,94,29.66,10.0,SSE,4.6,-,N/A,,Scattered Clouds,150,2012-10-20 12:35:00
8:55 AM,55.4,55.4,100,29.66,10.0,SSE,3.5,-,N/A,,Mostly Cloudy,150,2012-10-20 12:55:00
9:15 AM,57.2,55.4,94,29.67,10.0,Calm,Calm,-,N/A,,Overcast,0,2012-10-20 13:15:00
9:35 AM,57.2,55.4,94,29.67,10.0,Calm,Calm,-,N/A,,Mostly Cloudy,0,2012-10-20 13:35:00
9:55 AM,60.8,55.4,82,29.67,10.0,Calm,Calm,-,N/A,,Partly Cloudy,0,2012-10-20 13:55:00
10:15 AM,62.6,55.4,77,29.67,10.0,Calm,Calm,-,N/A,,Mostly Cloudy,0,2012-10-20 14:15:00
10:35 AM,60.8,53.6,77,29.67,10.0,SW,5.8,-,N/A,,Mostly Cloudy,230,2012-10-20 14:35:00
10:55 AM,62.6,55.4,77,29.67,10.0,West,4.6,-,N/A,,Partly Cloudy,260,2012-10-20 14:55:00
11:15 AM,62.6,53.6,72,29.67,10.0,West,4.6,-,N/A,,Clear,270,2012-10-20 15:15:00
11:35 AM,62.6,53.6,72,29.66,10.0,WSW,3.5,-,N/A,,Clear,250,2012-10-20 15:35:00
11:55 AM,64.4,53.6,68,29.66,10.0,Calm,Calm,-,N/A,,Mostly Cloudy,0,2012-10-20 15:55:00
12:15 PM,64.4,51.8,64,29.65,10.0,West,5.8,-,N/A,,Mostly Cloudy,270,2012-10-20 16:15:00
12:35 PM,66.2,51.8,60,29.65,10.0,WSW,6.9,-,N/A,,Partly Cloudy,250,2012-10-20 16:35:00
12:55 PM,66.2,48.2,52,29.63,10.0,West,8.1,-,N/A,,Partly Cloudy,260,2012-10-20 16:55:00
1:15 PM,66.2,48.2,52,29.62,10.0,West,8.1,-,N/A,,Partly Cloudy,260,2012-10-20 17:15:00
1:35 PM,66.2,48.2,52,29.60,10.0,Calm,Calm,-,N/A,,Clear,0,2012-10-20 17:35:00
1:55 PM,66.2,48.2,52,29.60,10.0,Calm,Calm,-,N/A,,Clear,0,2012-10-20 17:55:00
2:15 PM,68.0,46.4,46,29.60,10.0,South,6.9,-,N/A,,Clear,180,2012-10-20 18:15:00
2:35 PM,69.8,46.4,43,29.59,10.0,West,6.9,-,N/A,,Partly Cloudy,270,2012-10-20 18:35:00
2:55 PM,69.8,48.2,46,29.59,10.0,West,10.4,-,N/A,,Mostly Cloudy,260,2012-10-20 18:55:00
3:15 PM,68.0,46.4,46,29.59,10.0,West,8.1,-,N/A,,Mostly Cloudy,270,2012-10-20 19:15:00
3:35 PM,66.2,44.6,46,29.58,10.0,WSW,10.4,-,N/A,,Mostly Cloudy,250,2012-10-20 19:35:00
3:55 PM,64.4,46.4,52,29.59,10.0,SW,6.9,-,0.01,Thunderstorm,Overcast,230,2012-10-20 19:55:00
4:15 PM,60.8,48.2,63,29.65,9.0,SW,16.1,34.5,0.01,Thunderstorm,Thunderstorm,220,2012-10-20 20:15:00
4:35 PM,55.4,51.8,88,29.67,10.0,SE,5.8,-,0.10,Thunderstorm,Mostly Cloudy,140,2012-10-20 20:35:00
4:55 PM,55.4,51.8,88,29.65,10.0,ESE,5.8,-,0.12,,Overcast,120,2012-10-20 20:55:00
5:15 PM,55.4,51.8,88,29.65,10.0,SE,3.5,-,N/A,,Overcast,130,2012-10-20 21:15:00
5:35 PM,55.4,51.8,88,29.65,10.0,Calm,Calm,-,N/A,,Mostly Cloudy,0,2012-10-20 21:35:00
5:55 PM,55.4,51.8,88,29.66,10.0,Calm,Calm,-,N/A,,Partly Cloudy,0,2012-10-20 21:55:00
6:15 PM,53.6,51.8,94,29.67,1.8,SE,3.5,-,N/A,,Clear,130,2012-10-20 22:15:00
6:35 PM,53.6,51.8,94,29.68,10.0,ESE,4.6,-,N/A,,Mostly Cloudy,120,2012-10-20 22:35:00
6:55 PM,53.6,51.8,94,29.69,10.0,Calm,Calm,-,N/A,,Overcast,0,2012-10-20 22:55:00
7:15 PM,53.6,50.0,88,29.69,10.0,West,3.5,-,N/A,,Overcast,260,2012-10-20 23:15:00
7:35 PM,55.4,46.4,72,29.70,10.0,SSW,4.6,-,N/A,,Scattered Clouds,200,2012-10-20 23:35:00
7:55 PM,53.6,44.6,72,29.70,10.0,WSW,6.9,-,N/A,,Mostly Cloudy,240,2012-10-20 23:55:00
8:15 PM,53.6,44.6,72,29.71,10.0,WSW,8.1,-,N/A,,Overcast,240,2012-10-21 00:15:00
8:35 PM,53.6,46.4,77,29.71,10.0,Calm,Calm,-,N/A,,Overcast,0,2012-10-21 00:35:00
8:55 PM,53.6,42.8,67,29.72,10.0,SW,5.8,-,N/A,,Overcast,230,2012-10-21 00:55:00
9:15 PM,51.8,44.6,76,29.72,10.0,SSW,3.5,-,N/A,,Overcast,210,2012-10-21 01:15:00
9:35 PM,51.8,42.8,71,29.73,10.0,SW,5.8,-,N/A,,Overcast,230,2012-10-21 01:35:00
9:55 PM,53.6,41.0,62,29.73,10.0,WSW,4.6,-,N/A,,Overcast,250,2012-10-21 01:55:00
10:15 PM,51.8,41.0,67,29.73,10.0,West,3.5,-,N/A,,Mostly Cloudy,260,2012-10-21 02:15:00
10:35 PM,46.4,46.4,100,29.73,10.0,Calm,Calm,-,N/A,,Mostly Cloudy,0,2012-10-21 02:35:00
10:55 PM,46.4,44.6,93,29.73,9.0,Calm,Calm,-,N/A,,Mostly Cloudy,0,2012-10-21 02:55:00
11:15 PM,46.4,44.6,93,29.73,10.0,SW,4.6,-,N/A,,Overcast,220,2012-10-21 03:15:00
11:35 PM,46.4,44.6,93,29.74,9.0,SW,4.6,-,N/A,,Scattered Clouds,220,2012-10-21 03:35:00
11:55 PM,46.4,42.8,87,29.74,10.0,SSW,5.8,-,N/A,,Clear,200,2012-10-21 03:55:00